Weather History for KSUU - August, 2013

Change the Weather History Date:

Thursday, August 22, 2013

  Actual Average Record
Temperature  
Mean Temperature 68 °F -  
Max Temperature 80 °F 85 °F 105 °F (1999)
Min Temperature 56 °F 56 °F 53 °F (2002)
Cooling Degree Days 2    
Growing Degree Days 18 (Base 50)    
Moisture  
Dew Point 54 °F    
Average Humidity 73    
Maximum Humidity 95    
Minimum Humidity 41    
Precipitation  
Precipitation 0.00 in - - ()
Sea Level Pressure  
Sea Level Pressure 29.87 in    
Wind  
Wind Speed 26 mph (SW)    
Max Wind Speed 32 mph    
Max Gust Speed 38 mph    
Visibility 10 miles    
Events      
Averages and records for this station are not official NWS values.
T = Trace of Precipitation, MM = Missing Value Source: NWS Daily Summary

Daily Weather History Graph

Daily Weather History Graph

Search for Another Location

Airport or City:

Trip Planner

Search our weather history database for the weather conditions in past years. The results will help you decide how hot, cold, wet, or windy it might be!

Date:

Astronomy

Aug. 22, 2013 Rise Set
Actual Time 6:28 AM PDT 7:51 PM PDT
Civil Twilight 6:01 AM PDT 8:19 PM PDT
Nautical Twilight 5:28 AM PDT 8:52 PM PDT
Astronomical Twilight 4:53 AM PDT 9:26 PM PDT
Moon 8:41 PM PDT (8/22) 8:21 AM PDT (8/22)
Length of Visible Light 14h 17m
Length of Day
13h 22m
Waning Gibbous, 96% of the Moon is Illuminated
Aug 22
Waning Gibbous
Aug 28
Last Quarter
Sep 5
New
Sep 12
First Quarter
Sep 19
Full

Hourly Weather History & Observations

Time (PDT) Temp. Dew Point Humidity Pressure Visibility Wind Dir Wind Speed Gust Speed Precip Events Conditions
12:58 AM 59.7 °F 53.2 °F 79% 29.86 in 10.0 mi SW 26.5 mph 32.2 mph N/A   Clear
1:58 AM 58.5 °F 53.8 °F 84% 29.85 in 10.0 mi SW 25.3 mph - N/A   Clear
2:58 AM 58.5 °F 53.8 °F 84% 29.85 in 10.0 mi SW 23.0 mph - N/A   Clear
3:58 AM 58.1 °F 53.1 °F 83% 29.86 in 10.0 mi SW 25.3 mph - N/A   Clear
4:58 AM 57.6 °F 54.1 °F 88% 29.86 in 10.0 mi SW 25.3 mph 32.2 mph N/A   Clear
5:58 AM 56.5 °F 54.5 °F 93% 29.86 in 10.0 mi SW 25.3 mph 32.2 mph N/A   Clear
6:58 AM 56.3 °F 54.9 °F 95% 29.87 in 10.0 mi SW 27.6 mph 34.5 mph N/A   Clear
7:58 AM 58.8 °F 54.1 °F 84% 29.89 in 10.0 mi WSW 26.5 mph 34.5 mph N/A   Clear
8:58 AM 61.5 °F 54.3 °F 77% 29.91 in 10.0 mi SW 28.8 mph 32.2 mph N/A   Clear
9:58 AM 64.0 °F 54.3 °F 71% 29.92 in 10.0 mi SW 29.9 mph 35.7 mph N/A   Clear
10:58 AM 66.9 °F 54.5 °F 64% 29.92 in 10.0 mi SW 31.1 mph 35.7 mph N/A   Clear
11:58 AM 69.4 °F 54.0 °F 58% 29.91 in 10.0 mi SW 25.3 mph - N/A   Clear
12:58 PM 74.1 °F 53.8 °F 49% 29.90 in 10.0 mi SW 25.3 mph - N/A   Clear
1:58 PM 77.9 °F 54.1 °F 44% 29.88 in 10.0 mi SW 23.0 mph - N/A   Clear
2:58 PM 79.7 °F 53.8 °F 41% 29.87 in 10.0 mi SW 20.7 mph - N/A   Clear
6:58 PM 70.9 °F 52.7 °F 53% 29.83 in 10.0 mi SW 25.3 mph 34.5 mph N/A   Clear
7:58 PM 64.8 °F 53.4 °F 67% 29.83 in 10.0 mi SW 27.6 mph 32.2 mph N/A   Clear
8:58 PM 60.8 °F 53.4 °F 77% 29.85 in 10.0 mi SW 27.6 mph 34.5 mph N/A   Clear
9:58 PM 59.0 °F 53.2 °F 81% 29.86 in 10.0 mi SW 27.6 mph 34.5 mph N/A   Clear
10:58 PM 58.3 °F 53.6 °F 84% 29.85 in 10.0 mi SW 32.2 mph 38.0 mph N/A   Clear
11:58 PM 57.9 °F 53.8 °F 86% 29.86 in 10.0 mi SW 28.8 mph 34.5 mph N/A   Clear